(29363) Ghigabartolini = 1996 CW8 = 2000 JE27

Discovered at Cima Ekar on 1996-02-14 by U. Munari and M. Tombelli.
(29363) Ghigabartolini

Ludovica “Ghiga” Bartolini (b. 2016) is the granddaughter of the second discoverer. [Ref: WGSBN Bull. 1, #12, 8]

Orbit

Orbit type: Main Belt

Note: WebGL enabled browser required.

epoch2024-03-31.0
epoch JD2460400.5
perihelion date2021-08-11.55316
perihelion JD2459438.05316
argument of perihelion (°)215.71417
ascending node (°)358.86133
inclination (°)6.72413
eccentricity0.0654613
perihelion distance (AU)2.1783567
Tisserand w.r.t. Jupiter3.6
ΔV w.r.t. Earth (km/sec)9.4
semimajor axis (AU)2.3309433
mean anomaly (°)266.55266
mean daily motion (°/day)0.27695310
aphelion distance (AU)2.484
period (years)3.56
P-vector [x]-0.82329930
P-vector [y]-0.48979228
P-vector [z]-0.28684803
Q-vector [x]0.56760272
Q-vector [y]-0.71249613
Q-vector [z]-0.41252445
absolute magnitude15.31
phase slope0.15
uncertainty0
referenceMPEC 2024-E179
observations used2115
oppositions19
arc length (days)10283
first opposition used1996
last opposition used2024
residual rms (arc-secs)0.68
perturbers coarse indicatorM-v
perturbers precise indicator003Ek
first observation date used1996-01-17.0
last observation date used2024-03-13.0
computer nameMPCLINUX
JD of orbit computation2456937.212844
perihelion JD uncertainty (days)9.9250E-05
argument of perihelion uncertainty (°)4.1005E-05
ascending node uncertainty (°)3.0626E-05
inclination uncertainty (°)5.3821E-06
eccentricity uncertainty 5.8399E-08
perihelion distance uncertainty (AU)1.3784E-07
Minimum Orbit Intersection Distances (in AU)
for orbit epoch: 2460400.5, reference: E2024-EH9
Mercury1.72924
Venus1.46197
Earth1.17668
Mars0.55299
Jupiter2.4844
Saturn6.64573
Uranus16.2025
Neptune27.3516

Observations

2158 total observations over interval: 1996 01 17.03906 – 2024 03 13.124590
These data are available for download (format description).

Date (UT) J2000 RA J2000 Dec Magn Location Ref
1996 01 17.03906 10 54 33.18 +13 48 35.0   098 – Asiago Observatory, Cima Ekar MPC 27357
1996 01 18.03539 10 54 18.26 +13 49 48.3   098 – Asiago Observatory, Cima Ekar MPC 27357
1996 01 20.02222 10 53 42.34 +13 52 37.8   098 – Asiago Observatory, Cima Ekar MPC 27357
1996 02 14.04154 10 35 55.94 +15 00 41.6   098 – Asiago Observatory, Cima Ekar MPC 26977
1996 02 14.06237 10 35 54.68 +15 00 44.9   098 – Asiago Observatory, Cima Ekar MPC 26977
1996 02 15.97432 10 33 56.59 +15 06 57.3   098 – Asiago Observatory, Cima Ekar MPC 26977
1996 02 15.99600 10 33 55.20 +15 07 03.3 18.3 V 098 – Asiago Observatory, Cima Ekar MPC 26977
1996 02 17.96701 10 31 50.00 +15 13 14.9   098 – Asiago Observatory, Cima Ekar MPC 27357
1996 02 17.99311 10 31 48.19 +15 13 20.3   098 – Asiago Observatory, Cima Ekar MPC 27357
1996 03 14.96181 10 05 04.72 +15 58 25.1   098 – Asiago Observatory, Cima Ekar MPC 27357
1996 03 14.98264 10 05 03.74 +15 58 25.2   098 – Asiago Observatory, Cima Ekar MPC 27357
1996 03 20.90382 10 00 38.26 +15 54 41.0   098 – Asiago Observatory, Cima Ekar MPC 27357
1996 03 20.92479 10 00 37.37 +15 54 39.5   098 – Asiago Observatory, Cima Ekar MPC 27357
1998 12 17.18141 04 43 33.17 +33 21 02.8 19.2   704 – Lincoln Laboratory ETS, New Mexico MPS 13484
1998 12 17.20471 04 43 31.41 +33 21 00.6 19.7   704 – Lincoln Laboratory ETS, New Mexico MPS 13484
1998 12 17.22796 04 43 29.69 +33 20 57.0 19.6   704 – Lincoln Laboratory ETS, New Mexico MPS 13484
1998 12 17.25106 04 43 28.01 +33 20 54.9 20.2   704 – Lincoln Laboratory ETS, New Mexico MPS 13484
1998 12 17.27434 04 43 26.36 +33 20 48.7 19.4   704 – Lincoln Laboratory ETS, New Mexico MPS 13484
2000 04 28.34030 14 47 02.78 -25 08 27.0 17.9   704 – Lincoln Laboratory ETS, New Mexico MPS 14721
2000 04 28.35340 14 47 01.90 -25 08 27.4 17.9   704 – Lincoln Laboratory ETS, New Mexico MPS 14721
2000 04 28.36585 14 47 01.07 -25 08 26.0 17.6   704 – Lincoln Laboratory ETS, New Mexico MPS 14721
2000 04 28.38029 14 46 59.99 -25 08 26.2 19.1   704 – Lincoln Laboratory ETS, New Mexico MPS 14721
2000 05 07.28181 14 37 12.87 -24 56 06.6 17.9   704 – Lincoln Laboratory ETS, New Mexico MPS 14721
2000 05 07.29402 14 37 12.02 -24 56 04.5 18.9   704 – Lincoln Laboratory ETS, New Mexico MPS 14721
2000 05 07.30626 14 37 11.22 -24 56 03.2 18.6   704 – Lincoln Laboratory ETS, New Mexico MPS 14721
2000 05 07.31855 14 37 10.41 -24 56 01.9 18.6   704 – Lincoln Laboratory ETS, New Mexico MPS 14721
2000 05 07.33161 14 37 09.46 -24 56 00.6 18.6   704 – Lincoln Laboratory ETS, New Mexico MPS 14721
2000 05 09.28839 14 35 02.14 -24 51 43.6 17.8   704 – Lincoln Laboratory ETS, New Mexico MPS 14721
2000 05 09.30094 14 35 01.31 -24 51 41.6 18.3   704 – Lincoln Laboratory ETS, New Mexico MPS 14721
2000 05 09.31347 14 35 00.49 -24 51 40.0 17.7   704 – Lincoln Laboratory ETS, New Mexico MPS 14721
2000 05 09.32600 14 34 59.62 -24 51 38.0 18.0   704 – Lincoln Laboratory ETS, New Mexico MPS 14721
2000 05 09.33857 14 34 58.84 -24 51 36.4 18.2   704 – Lincoln Laboratory ETS, New Mexico MPS 14721
2000 05 10.20533 14 34 03.46 -24 49 33.3 18.0   704 – Lincoln Laboratory ETS, New Mexico MPS 14721
2000 05 10.21755 14 34 02.63 -24 49 32.2 18.1   704 – Lincoln Laboratory ETS, New Mexico MPS 14721
2000 05 10.23087 14 34 01.79 -24 49 29.8 18.3   704 – Lincoln Laboratory ETS, New Mexico MPS 14721
2000 05 10.25524 14 34 00.07 -24 49 26.8 18.7   704 – Lincoln Laboratory ETS, New Mexico MPS 14721
2000 05 11.27430 14 32 55.17 -24 46 53.3 18.6   704 – Lincoln Laboratory ETS, New Mexico MPS 14721
2000 05 11.28748 14 32 54.34 -24 46 52.8 18.3   704 – Lincoln Laboratory ETS, New Mexico MPS 14721
2000 05 11.29950 14 32 53.57 -24 46 50.8 18.2   704 – Lincoln Laboratory ETS, New Mexico MPS 14721
2000 05 11.31149 14 32 52.79 -24 46 47.6 18.3   704 – Lincoln Laboratory ETS, New Mexico MPS 14721
2000 05 11.32337 14 32 51.96 -24 46 47.2 18.2   704 – Lincoln Laboratory ETS, New Mexico MPS 14721
2000 05 28.21161 14 17 58.35 -23 55 07.5 17.8 R 699 – Lowell Observatory-LONEOS MPS 15060
2000 05 28.25262 14 17 56.60 -23 54 59.8   699 – Lowell Observatory-LONEOS MPS 15060
2000 05 28.27630 14 17 55.62 -23 54 54.7   699 – Lowell Observatory-LONEOS MPS 15060
2000 05 28.30006 14 17 54.62 -23 54 50.3   699 – Lowell Observatory-LONEOS MPS 15060
2000 06 04.31624 14 14 05.64 -23 33 14.3 18.7   608 – Haleakala-AMOS MPS 15060
2000 06 04.32696 14 14 05.34 -23 33 12.5 19.2   608 – Haleakala-AMOS MPS 15060
2000 06 04.33802 14 14 05.04 -23 33 10.5 19.1   608 – Haleakala-AMOS MPS 15060
2001 07 22.41158 00 59 35.43 +05 13 26.2 19.7   704 – Lincoln Laboratory ETS, New Mexico MPS 32180
2001 07 22.42219 00 59 35.77 +05 13 30.4 19.4   704 – Lincoln Laboratory ETS, New Mexico MPS 32180
2001 07 22.43281 00 59 36.15 +05 13 33.4 19.3   704 – Lincoln Laboratory ETS, New Mexico MPS 32180
2001 08 24.40803 01 03 41.00 +06 57 39.5 19.3   704 – Lincoln Laboratory ETS, New Mexico MPS 33113
2001 08 24.42103 01 03 40.75 +06 57 37.8 20.5   704 – Lincoln Laboratory ETS, New Mexico MPS 33113
2001 08 24.43397 01 03 40.43 +06 57 41.1 20.5   704 – Lincoln Laboratory ETS, New Mexico MPS 33113
2001 08 24.44702 01 03 40.05 +06 57 41.2 20.0   704 – Lincoln Laboratory ETS, New Mexico MPS 33113
2001 09 11.29126 00 53 32.09 +06 50 09.4 18.7 R 699 – Lowell Observatory-LONEOS MPS 33971
2001 09 11.31470 00 53 30.88 +06 50 07.2   699 – Lowell Observatory-LONEOS MPS 33971
2001 09 11.33820 00 53 29.78 +06 50 05.2   699 – Lowell Observatory-LONEOS MPS 33971
2001 09 11.36175 00 53 28.55 +06 50 02.4   699 – Lowell Observatory-LONEOS MPS 33971
2001 09 16.38060 00 49 13.74 +06 39 59.4 18.7   704 – Lincoln Laboratory ETS, New Mexico MPS 35345
2001 09 16.39494 00 49 12.96 +06 39 57.4 18.8   704 – Lincoln Laboratory ETS, New Mexico MPS 35345
2001 09 16.40930 00 49 12.16 +06 39 54.9 19.5   704 – Lincoln Laboratory ETS, New Mexico MPS 35345
2001 09 16.42382 00 49 11.35 +06 39 53.4 19.1   704 – Lincoln Laboratory ETS, New Mexico MPS 35345
2001 09 18.28108 00 47 30.29 +06 35 23.2 18.5 R 699 – Lowell Observatory-LONEOS MPS 35345
2001 09 18.30451 00 47 28.86 +06 35 19.5   699 – Lowell Observatory-LONEOS MPS 35345
2001 09 18.32797 00 47 27.55 +06 35 16.4   699 – Lowell Observatory-LONEOS MPS 35345
2001 09 18.35149 00 47 26.14 +06 35 11.8   699 – Lowell Observatory-LONEOS MPS 35345
2001 09 20.32170 00 45 34.92 +06 30 00.6 18.8   704 – Lincoln Laboratory ETS, New Mexico MPS 35345
2001 09 20.33831 00 45 33.98 +06 29 58.2 18.9   704 – Lincoln Laboratory ETS, New Mexico MPS 35345
2001 09 20.35399 00 45 33.03 +06 29 55.6 18.9   704 – Lincoln Laboratory ETS, New Mexico MPS 35345
2001 09 20.36818 00 45 32.19 +06 29 53.6 18.9   704 – Lincoln Laboratory ETS, New Mexico MPS 35345
2001 09 20.38237 00 45 31.34 +06 29 51.3 18.8   704 – Lincoln Laboratory ETS, New Mexico MPS 35345
2001 09 22.32883 00 43 38.24 +06 24 19.9 19.0 V 691 – Steward Observatory, Kitt Peak-Spacewatch MPS 35345
2001 09 22.35614 00 43 36.58 +06 24 15.1 18.7 V 691 – Steward Observatory, Kitt Peak-Spacewatch MPS 35345
2001 09 22.38328 00 43 34.93 +06 24 10.3 19.0 V 691 – Steward Observatory, Kitt Peak-Spacewatch MPS 35345
2001 09 23.33313 00 42 38.83 +06 21 21.0 18.1   704 – Lincoln Laboratory ETS, New Mexico MPS 35345
2001 09 23.34845 00 42 37.89 +06 21 17.9 18.0   704 – Lincoln Laboratory ETS, New Mexico MPS 35345
2001 09 23.39111 00 42 35.21 +06 21 10.0 19.5   704 – Lincoln Laboratory ETS, New Mexico MPS 35345
2001 09 24.33614 00 41 38.91 +06 18 17.6 18.6   704 – Lincoln Laboratory ETS, New Mexico MPS 35345
2001 09 24.35075 00 41 38.01 +06 18 14.8 19.1   704 – Lincoln Laboratory ETS, New Mexico MPS 35345
2001 09 24.36536 00 41 37.10 +06 18 11.9 18.8   704 – Lincoln Laboratory ETS, New Mexico MPS 35345
2001 09 24.37998 00 41 36.15 +06 18 09.2 18.8   704 – Lincoln Laboratory ETS, New Mexico MPS 35345
2001 09 24.39461 00 41 35.25 +06 18 06.6 18.9   704 – Lincoln Laboratory ETS, New Mexico MPS 35345
2001 09 26.98571 00 38 58.27 +06 09 50.3 18.0 V 049 – Uppsala-Kvistaberg MPS 35345
